Regional Weather Roundup
Issued by NWS

Home | Current Version | Previous Version | Text Only | Print | Product List | Glossary On
Versions: 1 2 3 4 5 6 7 8 9 10 11 12 13 14 15 16 17 18 19 20 21 22 23 24 25 26 27 28 29 30 31 32 33 34 35 36 37 38 39 40 41 42 43 44 45 46 47 48 49 50
000
ASUS45 KBOI 031210
RWRID

IDAHO REGIONAL WEATHER ROUNDUP
NATIONAL WEATHER SERVICE BOISE ID
600 AM MDT WED JUN 03 2020

NOTE: "FAIR" INDICATES FEW OR NO CLOUDS BELOW 12000 FEET
WITH NO SIGNIFICANT WEATHER AND/OR OBSTRUCTIONS TO VISIBILITY

IDZ012-014-031300-
SOUTHWEST IDAHO


CITY           SKY/WX    TMP DP  RH WIND       PRES   REMARKS
BOISE          PTCLDY    62  46  55 W6        30.06R
CALDWELL       PTCLDY    62  41  46 SW9       30.07R
MOUNTAIN HOME  PTCLDY    59  46  62 NW7       30.06R
$$

IDZ016-017-031300-
SOUTHCENTRAL IDAHO


CITY           SKY/WX    TMP DP  RH WIND       PRES   REMARKS
BURLEY         PTCLDY    59  47  64 CALM      30.09S
JEROME         NOT AVBL
TWIN FALLS     PTCLDY    61  46  57 SW10      30.10R
$$

IDZ019>023-031300-
SOUTHEAST IDAHO


CITY           SKY/WX    TMP DP  RH WIND       PRES   REMARKS
IDAHO FALLS    MOCLDY    55  45  68 CALM      30.15R
POCATELLO      MOCLDY    55  45  68 NW6       30.13R
REXBURG        MOCLDY    58  45  62 S6        30.14R
$$

IDZ006-010-011-018-031-032-031300-
CENTRAL IDAHO MOUNTAINS


CITY           SKY/WX    TMP DP  RH WIND       PRES   REMARKS
MCCALL         PTCLDY    47  41  80 CALM      30.14S
HAILEY         MOCLDY    52  39  62 NW8       30.19S
STANLEY          N/A     42  34  73 CALM      30.24S
SALMON         PTCLDY    49  42  77 CALM      30.11R
CHALLIS        PTCLDY    52  36  54 SW5       30.14S
$$

IDZ002-004-006-007-026-031300-
NORTHERN IDAHO


CITY           SKY/WX    TMP DP  RH WIND       PRES   REMARKS
LEWISTON       PTCLDY    60  42  51 SW6       30.09S
LOWELL           N/A     50  47  89 N3        30.13R
COEUR D`ALENE  CLEAR     48  41  76 S6        30.09S
MULLAN PASS    CLOUDY    43  32  65 W6        30.13S
$$




USA.gov is the U.S. government's official web portal to all federal, state and local government web resources and services.